ISAT (43879 NORAD) Tracking and Keplerian Element Data

This shows tracking and keplerian element data for the satellite.

Feedback or suggestion? Click here.




ElementValue
Catalog43879
NameISAT
Epoch Orbit369
Epoch Day20.89639335
Epoch Year2019
RAAN290.9862
Inclination97.7267
Eccentricity0.0013779
Argument of Perigee155.1836
Mean Anonmoly205.0051
Mean Motion14.95872717
Decay Rate6.93E-06
L11 43879U 18111D 19020.89639335 .00000693 00000-0 67048-4 0 9998
L22 43879 97.7267 290.9862 0013779 155.1836 205.0051 14.95872717 3695

Live tracking and technical data element details for ISAT (NORAD 43879). ISAT can be tracked NOW for your location showing map with azimuth and elevation plus other details from your city location.

Track the satellite on the map from your city or location and see movement details for azimuth, elevation, latitude, longitude, range, height, and movement on the map or in text.







IsCatalogInMostPopularTable: catalog: 43879, numindb: 20
Update: records affected: 1



GetName: 43879 ISAT

Hit Count: updated at: Wed, 23 Jan 2019 02:41:22 GMT